Location: Zagreb
(45.8000°N, 16.0000°E)
Time: 14:42:53
(UTC+02:00)

Transit 2A - Pass Details

Date: 17 August 2022
Orbit: 601 x 956 km, 66.7° (Epoch: 25 September)

Event Time Altitude Azimuth Distance (km) Brightness Sun altitude
Rises 12:20:02 0° 242° (WSW) 3,085 9.2 56.5°
Reaches altitude 10° 12:22:43 10° 253° (WSW) 2,114 8.4 56.6°
Maximum altitude 12:26:49 29° 313° (NW) 1,195 7.1 56.8°
Drops below altitude 10° 12:30:44 10° 14° (NNE) 1,995 8.0 57.0°
Sets 12:33:12 0° 27° (NNE) 2,879 8.7 57.1°
